Location: Unspecified
(0.0000°N, 0.0000°E)
Time: 15:21:14
(UTC+00:00)

Cosmos 80 Rocket - Pass Details

Date: 29 September 2021
Orbit: 1361 x 1510 km, 56.1° (Epoch: 15 October)

Event Time Altitude Azimuth Distance (km) Brightness Sun altitude
Rises 20:28:34 0° 319° (NW) 4,582 8.4 -39.6°
Reaches altitude 10° 20:31:39 10° 315° (NW) 3,586 7.8 -40.3°
Enters shadow 20:39:50 54° 250° (WSW) 1,698 5.8 -42.4°
